sat.trackr.live / text

‹ back to catalog

STARLINK-34012

NORAD 63926 · 2025-098A

PAYLOAD ACTIVE UNKNOWN

§ Identity

Operator
Country
US
Launch date
2025-05-13
Launch site
AFWTR
Launch vehicle
Mass (kg)
RCS (m²)

Purposes: comms

External: N2YO · Heavens-Above · Gunter

§ Orbital elements

Epoch: 2026-05-25T02:11:29.438016Z

Period
96.11 min
Inclination
70.0012°
Eccentricity
0.0003121
Mean motion
14.98335855 rev/d
Perigee alt
569.9 km
Apogee alt
574.2 km
Semi-major
6,950.2 km
B*
2.6268e-4
RAAN
81.9477°
Arg perigee
266.6904°
Mean anomaly
93.3898°
Rev number
5,803

§ Raw data

STARLINK-340121 63926U 25098A   26145.09131294  .00003043  00000+0  26268-3 0  99932 63926  70.0012  81.9477 0003121 266.6904  93.3898 14.98335855 58031

JSON: /api/v1/satellites/63926 · /tle

For live sub-satellite position, see the globe view (requires WebGL).

§ Visibility from observer

Set your observer location to see the next 7 days of passes ≥ 10°. The values pass through the URL so the page stays shareable.

No JS? Fill the form by hand. The geolocation button needs JavaScript.